Home   Weather   Sunnyvale   Past weeks

Flag for USA Past Weather in Sunnyvale, California, USA — Yesterday and Last 2 Weeks

Now
47 °F

Overcast.


Feels Like: 47 °F
Forecast: 42 / 54 °F
Wind: No wind

Location: Moffett Field

Current Time: Feb 27, 2017 at 1:23:27 am

Latest Report: Feb 27, 2017 at 12:56 am


Visibility: 10 mi

Pressure: 29.95 "Hg

Humidity: 83%

Dew Point: 42 °F

Location of SunnyvaleLocation

Past Weather in Sunnyvale — Graph

°F

Sunnyvale Temperature Yesterday

Maximum temperature yesterday: 57 °F (at 12:56 pm)
Minimum temperature yesterday: 40 °F (at 4:56 am)
Average temperature yesterday: 49 °F

High & Low Weather Summary for the Past Weeks

 TemperatureHumidityPressure
High70 °F (Feb 15, 3:56 pm)100% (Feb 13, 7:56 am)30.30 "Hg (Feb 13, 7:56 am)
Low35 °F (Feb 24, 6:56 am)31% (Feb 15, 5:56 pm)29.16 "Hg (Feb 17, 4:56 pm)
Average53 °F76%30.00 "Hg
* Reported Feb 11 11:56 pm — Feb 26 11:56 pm, Sunnyvale, Weather by CustomWeather, © 2017

Note: Actual official high and low records may vary slightly from our data, if they occured in-between our weather recording intervals... More about our weather records

Advertising

Sunnyvale Weather History for the Previous 24 Hours

Scroll right to see more
 ConditionsComfort  
Time TempWeatherWind HumidityBarometerVisibility
11:56 pm
Sun, Feb 26
47 °FOvercast.3 mph80%29.95 "Hg10 mi
10:56 pm49 °FLight rain. Overcast.5 mph77%29.95 "Hg10 mi
9:56 pm50 °FMostly cloudy.3 mph71%29.95 "Hg10 mi
9:28 pm50 °FOvercast.3 mph71%29.95 "Hg10 mi
8:56 pm50 °FMostly cloudy.No wind71%29.95 "Hg10 mi
7:56 pm49 °FClear.No wind74%29.94 "Hg10 mi
6:56 pm50 °FClear.6 mph68%29.94 "Hg10 mi
5:56 pm52 °FPassing clouds.9 mph61%29.94 "Hg10 mi
4:56 pm55 °FPassing clouds.10 mph55%29.94 "Hg10 mi
3:56 pm56 °FPassing clouds.15 mph51%29.94 "Hg10 mi
2:56 pm54 °FSunny.12 mph64%29.94 "Hg10 mi
1:56 pm56 °FSunny.10 mph49%29.96 "Hg10 mi
12:56 pm57 °FSunny.8 mph47%29.98 "Hg10 mi
11:56 am55 °FSunny.6 mph47%30.01 "Hg10 mi
10:56 am54 °FSunny.6 mph53%30.02 "Hg10 mi
9:56 am51 °FSunny.3 mph63%30.03 "Hg10 mi
8:56 am48 °FSunny.3 mph74%30.04 "Hg10 mi
7:56 am44 °FSunny.No wind82%30.04 "Hg10 mi
6:56 am40 °FSunny.No wind86%30.02 "Hg10 mi
5:56 am40 °FClear.No wind86%30.01 "Hg10 mi
4:56 am40 °FClear.No wind83%30.00 "Hg10 mi
3:56 am43 °FClear.5 mph79%30.00 "Hg10 mi
2:56 am45 °FClear.3 mph74%30.00 "Hg10 mi
1:56 am45 °FClear.No wind76%30.03 "Hg10 mi
Weather by CustomWeather, © 2017

See weather overviewHow to use our weather pages